TimeEDT,TemperatureF,Dew PointF,Humidity,Sea Level PressureIn,VisibilityMPH,Wind Direction,Wind SpeedMPH,Gust SpeedMPH,PrecipitationIn,Events,Conditions,WindDirDegrees,DateUTC
12:54 AM,78.1,70.0,76,29.93,10.0,Calm,Calm,-,N/A,,Clear,0,2013-07-08 04:54:00
1:54 AM,75.9,71.1,85,29.94,10.0,SW,3.5,-,N/A,,Clear,220,2013-07-08 05:54:00
2:54 AM,75.9,70.0,82,29.94,10.0,Calm,Calm,-,N/A,,Partly Cloudy,0,2013-07-08 06:54:00
3:54 AM,75.9,70.0,82,29.93,10.0,SSW,4.6,-,N/A,,Clear,200,2013-07-08 07:54:00
4:54 AM,75.9,70.0,82,29.93,10.0,Calm,Calm,-,N/A,,Clear,0,2013-07-08 08:54:00
5:54 AM,75.9,70.0,82,29.94,10.0,SSW,3.5,-,N/A,,Clear,210,2013-07-08 09:54:00
6:54 AM,78.1,71.1,79,29.95,10.0,WSW,4.6,-,N/A,,Scattered Clouds,250,2013-07-08 10:54:00
7:54 AM,80.1,71.1,74,29.95,10.0,West,3.5,-,N/A,,Clear,280,2013-07-08 11:54:00
8:54 AM,82.0,72.0,71,29.96,10.0,Variable,3.5,-,N/A,,Mostly Cloudy,0,2013-07-08 12:54:00
9:15 AM,82.4,71.6,70,29.96,10.0,North,3.5,-,N/A,,Mostly Cloudy,360,2013-07-08 13:15:00
9:54 AM,82.0,71.1,69,29.96,10.0,NE,8.1,-,N/A,,Mostly Cloudy,40,2013-07-08 13:54:00
10:54 AM,80.1,69.1,69,29.98,10.0,ENE,8.1,17.3,N/A,,Mostly Cloudy,70,2013-07-08 14:54:00
11:54 AM,80.1,68.0,67,29.99,10.0,East,10.4,18.4,N/A,,Mostly Cloudy,80,2013-07-08 15:54:00
12:31 PM,80.6,69.8,70,30.00,10.0,ENE,10.4,18.4,N/A,,Scattered Clouds,70,2013-07-08 16:31:00
12:54 PM,81.0,68.0,65,30.00,10.0,East,10.4,-,N/A,,Scattered Clouds,80,2013-07-08 16:54:00
1:54 PM,80.1,68.0,67,30.00,10.0,East,10.4,-,N/A,,Mostly Cloudy,80,2013-07-08 17:54:00
2:54 PM,79.0,66.0,64,29.99,10.0,East,10.4,17.3,N/A,,Partly Cloudy,100,2013-07-08 18:54:00
3:54 PM,77.0,66.0,69,29.99,10.0,East,8.1,-,N/A,,Clear,100,2013-07-08 19:54:00
4:54 PM,75.9,64.9,69,30.00,10.0,East,9.2,-,N/A,,Partly Cloudy,80,2013-07-08 20:54:00
5:47 PM,71.6,62.6,73,30.02,10.0,NE,12.7,-,N/A,Thunderstorm,Mostly Cloudy,40,2013-07-08 21:47:00
5:54 PM,71.1,63.0,75,30.03,10.0,NE,11.5,-,N/A,Thunderstorm,Mostly Cloudy,40,2013-07-08 21:54:00
5:56 PM,71.6,62.6,73,30.03,10.0,NNE,11.5,-,N/A,,Mostly Cloudy,30,2013-07-08 21:56:00
6:06 PM,69.8,62.6,78,30.03,10.0,NE,10.4,-,N/A,,Overcast,40,2013-07-08 22:06:00
6:24 PM,71.6,64.4,78,30.02,10.0,ENE,9.2,-,0.01,Rain,Light Rain,70,2013-07-08 22:24:00
6:35 PM,69.8,64.4,83,30.02,9.0,ENE,9.2,-,0.01,Rain,Light Rain,70,2013-07-08 22:35:00
6:42 PM,69.8,64.4,83,30.02,1.8,SE,6.9,-,0.13,Rain,Heavy Rain,130,2013-07-08 22:42:00
6:50 PM,66.2,64.4,94,30.02,0.5,SE,6.9,-,0.34,Fog-Rain-Thunderstorm,Heavy Thunderstorms and Rain,130,2013-07-08 22:50:00
6:54 PM,66.9,64.0,90,30.01,0.8,ESE,9.2,-,0.39,Rain-Thunderstorm,Heavy Thunderstorms and Rain,110,2013-07-08 22:54:00
7:02 PM,68.0,64.4,88,30.02,1.2,East,10.4,-,0.09,Rain-Thunderstorm,Heavy Thunderstorms and Rain,80,2013-07-08 23:02:00
7:07 PM,68.0,64.4,88,30.02,2.0,NE,8.1,-,0.09,Rain-Thunderstorm,Thunderstorms and Rain,40,2013-07-08 23:07:00
7:16 PM,66.2,64.4,94,30.03,4.0,NE,8.1,-,0.10,Rain-Thunderstorm,Rain,50,2013-07-08 23:16:00
7:27 PM,66.2,64.4,94,30.03,2.0,ENE,9.2,-,0.16,Rain-Thunderstorm,Heavy Thunderstorms and Rain,70,2013-07-08 23:27:00
7:36 PM,66.2,64.4,94,30.04,4.0,ENE,6.9,-,0.16,Rain,Light Rain,60,2013-07-08 23:36:00
7:42 PM,66.2,62.6,88,30.04,6.0,ENE,6.9,-,0.16,Rain,Light Rain,70,2013-07-08 23:42:00
7:54 PM,66.0,63.0,90,30.04,10.0,ENE,9.2,-,0.16,Thunderstorm,Overcast,70,2013-07-08 23:54:00
8:14 PM,66.2,62.6,88,30.05,10.0,NE,4.6,-,N/A,,Overcast,50,2013-07-09 00:14:00
8:54 PM,66.0,63.0,90,30.06,10.0,NNE,5.8,-,N/A,,Overcast,30,2013-07-09 00:54:00
9:54 PM,64.9,62.1,90,30.08,10.0,NE,3.5,-,N/A,,Overcast,40,2013-07-09 01:54:00
10:21 PM,66.2,62.6,88,30.08,10.0,Calm,Calm,-,N/A,,Overcast,0,2013-07-09 02:21:00
10:54 PM,66.9,62.1,84,30.09,10.0,Calm,Calm,-,N/A,,Overcast,0,2013-07-09 02:54:00
11:01 PM,66.2,62.6,88,30.09,10.0,Calm,Calm,-,N/A,,Overcast,0,2013-07-09 03:01:00
11:14 PM,66.2,60.8,83,30.09,10.0,ENE,3.5,-,N/A,,Overcast,70,2013-07-09 03:14:00
11:23 PM,66.2,62.6,88,30.09,10.0,East,3.5,-,N/A,,Overcast,100,2013-07-09 03:23:00
11:54 PM,66.0,62.1,87,30.09,10.0,North,4.6,-,N/A,,Overcast,10,2013-07-09 03:54:00